Tracking 29892 objects as of 21-Nov-2024
HD Live streaming from Space Station
objects crossing your sky now

STARLINK-3292

Track STARLINK-3292 now!
10-day predictions
STARLINK-3292 is classified as:


NORAD ID: 50174
Int'l Code: 2021-125U
Perigee: 545.8 km
Apogee: 548.0 km
Inclination: 53.2 °
Period: 95.4 minutes
Semi major axis: 6917 km
RCS: Unknown
Launch date: December 18, 2021
Source: United States (US)
Launch site: AIR FORCE WESTERN TEST RANGE (AFWTR)
Your satellite tracking list
Your tracking list is empty




NASA's NSSDC Master Catalog

Two Line Element Set (TLE):
1 50174U 21125U   24326.11162495 -.00003934  00000-0 -22930-3 0  9994
2 50174  53.2160 210.7037 0001633 120.0654 240.0500 15.08828028164696
Source of the keplerian elements: AFSPC